RYR2842 EGSS-GCLP

Flight info

Callsign RYR2842
Flight time N/A
Altitude 33000
Route NUGBO M183 SILVA Q41 SAM M195 MARUK/N0450F370 M195 LORKU DCT POZOF DCT BALDA DCT BATAX DCT ORVED DCT ODPAK DCT OSLAD UR724 IBALU UN857 TERTO
Aircraft B38M/M-SADE3FGILRWY/SB1

Departure

Time N/A
Airport London Stansted Airport (EGSS)

Arrival

Time 2026-05-06 16:33
Airport Gran Canaria Airport (GCLP)
Time Latitude Longitude Altitude Speed Heading
2026-05-06 15:13 33.27585 -9.89508 32991 ft 400 kts 221°
2026-05-06 15:13 33.23193 -9.93589 32988 ft 400 kts 221°
2026-05-06 15:14 33.18796 -9.97668 32991 ft 400 kts 221°
2026-05-06 15:14 33.14403 -10.01739 32998 ft 400 kts 221°
2026-05-06 15:15 33.10009 -10.05807 32992 ft 400 kts 221°
2026-05-06 15:15 33.05606 -10.09878 32991 ft 400 kts 221°
2026-05-06 15:16 33.01197 -10.13944 33352 ft 402 kts 221°
2026-05-06 15:16 32.98981 -10.15984 33624 ft 404 kts 221°
2026-05-06 15:16 32.96750 -10.18036 33907 ft 405 kts 221°
2026-05-06 15:16 32.94519 -10.20088 34168 ft 407 kts 221°
2026-05-06 15:17 32.92274 -10.22151 34439 ft 407 kts 221°
2026-05-06 15:17 32.90031 -10.24212 34736 ft 407 kts 221°
2026-05-06 15:17 32.87788 -10.26270 35003 ft 408 kts 221°
2026-05-06 15:17 32.85542 -10.28330 35278 ft 408 kts 221°
2026-05-06 15:18 32.83293 -10.30392 35575 ft 407 kts 221°
2026-05-06 15:18 32.81082 -10.32417 35862 ft 407 kts 221°
2026-05-06 15:18 32.78840 -10.34469 36139 ft 407 kts 221°
2026-05-06 15:18 32.76597 -10.36521 36406 ft 406 kts 221°
2026-05-06 15:19 32.74358 -10.38568 36668 ft 406 kts 221°
2026-05-06 15:19 32.72118 -10.40615 36914 ft 406 kts 221°
2026-05-06 15:19 32.69878 -10.42660 37014 ft 407 kts 221°
2026-05-06 15:20 32.65398 -10.46746 36990 ft 405 kts 221°
2026-05-06 15:20 32.60932 -10.50814 36993 ft 405 kts 221°
2026-05-06 15:21 32.56459 -10.54884 36993 ft 405 kts 221°
2026-05-06 15:21 32.51994 -10.58941 36991 ft 405 kts 221°
2026-05-06 15:22 32.47528 -10.62994 36996 ft 404 kts 221°
2026-05-06 15:22 32.43061 -10.67042 36996 ft 404 kts 220°
2026-05-06 15:23 32.38592 -10.71087 36998 ft 404 kts 220°
2026-05-06 15:23 32.34122 -10.75128 36991 ft 404 kts 220°
2026-05-06 15:24 32.29648 -10.79168 36996 ft 404 kts 220°
2026-05-06 15:24 32.25179 -10.83197 36991 ft 404 kts 220°
2026-05-06 15:25 32.20710 -10.87222 36991 ft 404 kts 220°
2026-05-06 15:25 32.16238 -10.91244 36997 ft 404 kts 220°
2026-05-06 15:26 32.11795 -10.95235 36989 ft 404 kts 220°
2026-05-06 15:26 32.07327 -10.99243 36991 ft 404 kts 220°
2026-05-06 15:27 32.02858 -11.03248 37003 ft 404 kts 220°
2026-05-06 15:27 31.98394 -11.07242 37002 ft 403 kts 220°
2026-05-06 15:28 31.93915 -11.11246 37000 ft 403 kts 220°
2026-05-06 15:28 31.89447 -11.15233 36997 ft 403 kts 220°
2026-05-06 15:29 31.85732 -11.18547 36996 ft 403 kts 220°
2026-05-06 15:29 31.81273 -11.22519 36999 ft 403 kts 220°
2026-05-06 15:30 31.76800 -11.26499 36997 ft 403 kts 220°
2026-05-06 15:30 31.72341 -11.30476 36998 ft 402 kts 220°
2026-05-06 15:31 31.67883 -11.34452 36997 ft 402 kts 220°
2026-05-06 15:31 31.63423 -11.38424 36999 ft 402 kts 220°
2026-05-06 15:32 31.56737 -11.44369 37000 ft 402 kts 220°
2026-05-06 15:32 31.52281 -11.48326 37000 ft 402 kts 220°
2026-05-06 15:33 31.47828 -11.52275 37001 ft 401 kts 220°
2026-05-06 15:33 31.43378 -11.56216 37001 ft 401 kts 220°
2026-05-06 15:34 31.38927 -11.60154 37000 ft 401 kts 220°
2026-05-06 15:34 31.34473 -11.64089 37000 ft 401 kts 220°
2026-05-06 15:35 31.30022 -11.68017 37002 ft 401 kts 220°
2026-05-06 15:35 31.25571 -11.71939 37006 ft 401 kts 220°
2026-05-06 15:36 31.21124 -11.75854 37005 ft 401 kts 220°
2026-05-06 15:36 31.16668 -11.79772 37003 ft 401 kts 220°
2026-05-06 15:37 31.12213 -11.83685 37006 ft 401 kts 220°
2026-05-06 15:37 31.07755 -11.87595 37005 ft 401 kts 220°
2026-05-06 15:38 31.03295 -11.91503 37006 ft 401 kts 220°
2026-05-06 15:38 30.98835 -11.95405 37009 ft 401 kts 220°
2026-05-06 15:39 30.94401 -11.99281 37009 ft 401 kts 220°
2026-05-06 15:39 30.89939 -12.03177 37008 ft 401 kts 220°
2026-05-06 15:40 30.85476 -12.07068 37003 ft 401 kts 220°
2026-05-06 15:40 30.81014 -12.10954 37009 ft 400 kts 220°
2026-05-06 15:41 30.76561 -12.14827 37012 ft 400 kts 220°
2026-05-06 15:41 30.72102 -12.18702 37009 ft 400 kts 220°
2026-05-06 15:42 30.67644 -12.22570 37011 ft 400 kts 220°
2026-05-06 15:42 30.63185 -12.26435 37012 ft 400 kts 220°
2026-05-06 15:43 30.58729 -12.30294 37009 ft 400 kts 219°
2026-05-06 15:43 30.54266 -12.34154 37012 ft 400 kts 220°
2026-05-06 15:44 30.49798 -12.38007 37015 ft 400 kts 219°
2026-05-06 15:44 30.45327 -12.41851 37010 ft 400 kts 219°
2026-05-06 15:45 30.40883 -12.45669 37009 ft 400 kts 219°
2026-05-06 15:45 30.36382 -12.49531 37011 ft 400 kts 219°
2026-05-06 15:46 30.31934 -12.53344 37017 ft 400 kts 219°
2026-05-06 15:46 30.27462 -12.57171 37017 ft 400 kts 219°
2026-05-06 15:47 30.22985 -12.61000 37014 ft 400 kts 219°
2026-05-06 15:47 30.18509 -12.64823 37017 ft 400 kts 219°
2026-05-06 15:48 30.14028 -12.68645 37014 ft 400 kts 219°
2026-05-06 15:48 30.09552 -12.72467 37011 ft 400 kts 219°
2026-05-06 15:49 30.05082 -12.76290 37013 ft 400 kts 219°
2026-05-06 15:49 30.00609 -12.80110 37015 ft 400 kts 219°
2026-05-06 15:50 29.96139 -12.83924 37017 ft 400 kts 219°
2026-05-06 15:50 29.91664 -12.87738 37011 ft 400 kts 219°
2026-05-06 15:51 29.87185 -12.91550 37015 ft 400 kts 219°
2026-05-06 15:51 29.82709 -12.95357 37013 ft 400 kts 219°
2026-05-06 15:52 29.78226 -12.99163 37013 ft 400 kts 219°
2026-05-06 15:52 29.73743 -13.02967 37012 ft 401 kts 219°
2026-05-06 15:53 29.69259 -13.06767 37015 ft 401 kts 219°
2026-05-06 15:53 29.64767 -13.10568 37014 ft 401 kts 219°
2026-05-06 15:54 29.60279 -13.14363 37015 ft 400 kts 219°
2026-05-06 15:54 29.55788 -13.18156 37018 ft 401 kts 219°
2026-05-06 15:55 29.51296 -13.21945 37016 ft 400 kts 219°
2026-05-06 15:55 29.46832 -13.25706 37024 ft 401 kts 219°
2026-05-06 15:56 29.42336 -13.29490 37023 ft 401 kts 219°
2026-05-06 15:56 29.37837 -13.33272 37024 ft 401 kts 219°
2026-05-06 15:57 29.33332 -13.37056 37018 ft 401 kts 219°
2026-05-06 15:57 29.28828 -13.40834 37015 ft 402 kts 219°
2026-05-06 15:58 29.24314 -13.44616 37008 ft 402 kts 219°
2026-05-06 15:58 29.19806 -13.48390 37015 ft 401 kts 219°
2026-05-06 15:59 29.15417 -13.52338 37025 ft 400 kts 224°
2026-05-06 15:59 29.11230 -13.56540 37017 ft 401 kts 223°
2026-05-06 16:00 29.07011 -13.60713 37016 ft 401 kts 223°
2026-05-06 16:00 29.04911 -13.62782 36813 ft 395 kts 223°
2026-05-06 16:00 29.02852 -13.64810 36599 ft 387 kts 223°
2026-05-06 16:01 29.00822 -13.66809 36366 ft 383 kts 223°
2026-05-06 16:01 28.98805 -13.68792 36147 ft 381 kts 223°
2026-05-06 16:01 28.96806 -13.70757 35922 ft 378 kts 223°
2026-05-06 16:01 28.94816 -13.72713 35706 ft 376 kts 223°
2026-05-06 16:02 28.92838 -13.74655 35487 ft 374 kts 223°
2026-05-06 16:02 28.90866 -13.76592 35271 ft 373 kts 223°
2026-05-06 16:02 28.88916 -13.78504 34950 ft 368 kts 223°
2026-05-06 16:02 28.86972 -13.80410 34372 ft 369 kts 222°
2026-05-06 16:03 28.85024 -13.82320 33806 ft 369 kts 222°
2026-05-06 16:03 28.83109 -13.84197 33282 ft 366 kts 222°
2026-05-06 16:03 28.81185 -13.86081 32825 ft 363 kts 223°
2026-05-06 16:03 28.79281 -13.87945 32391 ft 359 kts 223°
2026-05-06 16:04 28.77392 -13.89792 31960 ft 356 kts 223°
2026-05-06 16:04 28.75519 -13.91623 31527 ft 353 kts 223°
2026-05-06 16:04 28.73665 -13.93435 31126 ft 350 kts 223°
2026-05-06 16:04 28.71821 -13.95236 30724 ft 348 kts 223°
2026-05-06 16:05 28.69988 -13.97025 30328 ft 346 kts 223°
2026-05-06 16:05 28.68168 -13.98801 29913 ft 344 kts 223°
2026-05-06 16:05 28.66354 -14.00570 29472 ft 342 kts 223°
2026-05-06 16:05 28.64556 -14.02322 29077 ft 339 kts 223°
2026-05-06 16:06 28.62776 -14.04057 28701 ft 337 kts 223°
2026-05-06 16:06 28.60978 -14.05809 28316 ft 343 kts 223°
2026-05-06 16:06 28.59150 -14.07588 27937 ft 346 kts 223°
2026-05-06 16:06 28.57322 -14.09367 27567 ft 346 kts 223°
2026-05-06 16:07 28.55491 -14.11147 27194 ft 345 kts 223°
2026-05-06 16:07 28.53669 -14.12918 26820 ft 344 kts 223°
2026-05-06 16:07 28.51858 -14.14678 26447 ft 342 kts 223°
2026-05-06 16:07 28.50056 -14.16428 26081 ft 339 kts 223°
2026-05-06 16:08 28.48272 -14.18160 25726 ft 336 kts 223°
2026-05-06 16:08 28.46497 -14.19883 25371 ft 334 kts 223°
2026-05-06 16:08 28.44740 -14.21588 25018 ft 331 kts 223°
2026-05-06 16:08 28.42993 -14.23282 24672 ft 329 kts 223°
2026-05-06 16:09 28.41254 -14.24968 24316 ft 327 kts 224°
2026-05-06 16:09 28.39524 -14.26646 23940 ft 327 kts 224°
2026-05-06 16:09 28.37803 -14.28315 23612 ft 324 kts 224°
2026-05-06 16:09 28.36097 -14.29969 23232 ft 322 kts 224°
2026-05-06 16:10 28.34401 -14.31613 22872 ft 319 kts 224°
2026-05-06 16:10 28.32724 -14.33237 22535 ft 315 kts 224°
2026-05-06 16:10 28.31068 -14.34841 22202 ft 312 kts 224°
2026-05-06 16:10 28.29426 -14.36430 21884 ft 308 kts 224°
2026-05-06 16:11 28.27807 -14.37997 21565 ft 305 kts 224°
2026-05-06 16:11 28.26203 -14.39548 21254 ft 301 kts 224°
2026-05-06 16:11 28.24612 -14.41086 20947 ft 302 kts 224°
2026-05-06 16:11 28.22998 -14.42646 20626 ft 307 kts 224°
2026-05-06 16:12 28.21366 -14.44223 20315 ft 309 kts 223°
2026-05-06 16:12 28.19730 -14.45802 19999 ft 308 kts 224°
2026-05-06 16:12 28.18101 -14.47374 19681 ft 307 kts 224°
2026-05-06 16:12 28.16481 -14.48937 19365 ft 304 kts 223°
2026-05-06 16:13 28.14879 -14.50482 19056 ft 302 kts 223°
2026-05-06 16:13 28.13285 -14.52018 18746 ft 299 kts 224°
2026-05-06 16:13 28.11710 -14.53537 18437 ft 296 kts 224°
2026-05-06 16:13 28.10144 -14.55044 18109 ft 294 kts 223°
2026-05-06 16:14 28.08592 -14.56539 17783 ft 291 kts 223°
2026-05-06 16:14 28.07060 -14.58013 17473 ft 288 kts 224°
2026-05-06 16:14 28.05542 -14.59473 17168 ft 284 kts 224°
2026-05-06 16:14 28.04047 -14.60911 16881 ft 280 kts 224°
2026-05-06 16:15 28.02563 -14.62338 16592 ft 281 kts 224°
2026-05-06 16:15 28.01058 -14.63785 16285 ft 286 kts 223°
2026-05-06 16:15 27.99583 -14.65314 15939 ft 287 kts 230°
2026-05-06 16:15 27.98226 -14.66965 15653 ft 285 kts 229°
2026-05-06 16:16 27.96895 -14.68562 15380 ft 281 kts 229°
2026-05-06 16:16 27.95559 -14.70153 15099 ft 278 kts 229°
2026-05-06 16:16 27.94232 -14.71725 14816 ft 275 kts 229°
2026-05-06 16:16 27.92918 -14.73276 14527 ft 272 kts 229°
2026-05-06 16:17 27.91615 -14.74812 14246 ft 269 kts 229°
2026-05-06 16:17 27.90322 -14.76334 13970 ft 269 kts 229°
2026-05-06 16:17 27.89438 -14.77374 13771 ft 273 kts 229°
2026-05-06 16:17 27.87675 -14.79448 13343 ft 278 kts 229°
2026-05-06 16:18 27.86788 -14.80490 13144 ft 278 kts 229°
2026-05-06 16:18 27.85431 -14.82085 12846 ft 278 kts 229°
2026-05-06 16:18 27.84110 -14.83637 12554 ft 277 kts 229°
2026-05-06 16:18 27.82774 -14.85204 12263 ft 277 kts 229°
2026-05-06 16:19 27.81437 -14.86773 11972 ft 277 kts 229°
2026-05-06 16:19 27.80104 -14.88337 11683 ft 276 kts 229°
2026-05-06 16:19 27.78771 -14.89901 11389 ft 276 kts 228°
2026-05-06 16:19 27.77439 -14.91462 11099 ft 276 kts 228°
2026-05-06 16:20 27.76109 -14.93021 10807 ft 276 kts 228°
2026-05-06 16:20 27.74779 -14.94578 10516 ft 275 kts 228°
2026-05-06 16:20 27.73461 -14.96122 10348 ft 270 kts 228°
2026-05-06 16:20 27.72178 -14.97624 10205 ft 261 kts 228°
2026-05-06 16:21 27.70937 -14.99078 10067 ft 253 kts 228°
2026-05-06 16:21 27.69792 -15.00543 9878 ft 246 kts 239°
2026-05-06 16:21 27.69014 -15.02242 9601 ft 242 kts 245°
2026-05-06 16:21 27.68279 -15.03919 9452 ft 234 kts 245°
2026-05-06 16:22 27.67571 -15.05537 9303 ft 227 kts 245°
2026-05-06 16:22 27.66871 -15.07140 9098 ft 232 kts 245°
2026-05-06 16:22 27.66147 -15.08797 8840 ft 238 kts 245°
2026-05-06 16:22 27.65410 -15.10485 8560 ft 241 kts 245°
2026-05-06 16:23 27.64666 -15.12189 8274 ft 242 kts 245°
2026-05-06 16:23 27.63963 -15.13911 7960 ft 241 kts 255°
2026-05-06 16:23 27.63897 -15.15770 7637 ft 239 kts 283°
2026-05-06 16:23 27.64424 -15.17534 7380 ft 237 kts 289°
2026-05-06 16:24 27.64995 -15.19270 7098 ft 235 kts 290°
2026-05-06 16:24 27.65574 -15.20989 6836 ft 234 kts 291°
2026-05-06 16:24 27.66157 -15.22698 6553 ft 233 kts 291°
2026-05-06 16:24 27.66737 -15.24377 6261 ft 232 kts 291°
2026-05-06 16:25 27.67326 -15.26071 5953 ft 232 kts 292°
2026-05-06 16:25 27.67917 -15.27767 5643 ft 233 kts 292°
2026-05-06 16:25 27.68509 -15.29464 5355 ft 232 kts 292°
2026-05-06 16:25 27.69097 -15.31148 5084 ft 231 kts 292°
2026-05-06 16:26 27.69684 -15.32826 4814 ft 229 kts 293°
2026-05-06 16:26 27.70267 -15.34494 4574 ft 226 kts 293°
2026-05-06 16:26 27.70833 -15.36115 4411 ft 220 kts 293°
2026-05-06 16:26 27.71393 -15.37719 4134 ft 220 kts 293°
2026-05-06 16:27 27.71953 -15.39323 3842 ft 220 kts 294°
2026-05-06 16:27 27.72506 -15.40910 3684 ft 214 kts 294°
2026-05-06 16:27 27.73152 -15.42378 3534 ft 206 kts 313°
2026-05-06 16:27 27.74299 -15.43319 3411 ft 205 kts 334°
2026-05-06 16:28 27.75526 -15.44034 3276 ft 193 kts 334°
2026-05-06 16:28 27.76706 -15.44703 3068 ft 187 kts 335°
2026-05-06 16:28 27.77928 -15.45050 2853 ft 179 kts
2026-05-06 16:28 27.79151 -15.44839 2704 ft 175 kts 15°
2026-05-06 16:29 27.80247 -15.44404 2523 ft 160 kts 21°
2026-05-06 16:29 27.81248 -15.43950 2321 ft 150 kts 21°
2026-05-06 16:29 27.82169 -15.43536 2169 ft 136 kts 20°
2026-05-06 16:29 27.83049 -15.43147 2024 ft 136 kts 20°
2026-05-06 16:30 27.83926 -15.42760 1815 ft 135 kts 20°
2026-05-06 16:30 27.84502 -15.42507 1686 ft 134 kts 21°
2026-05-06 16:30 27.85664 -15.42002 1429 ft 133 kts 20°
2026-05-06 16:30 27.86522 -15.41609 1270 ft 133 kts 22°
2026-05-06 16:31 27.87382 -15.41225 1096 ft 132 kts 21°
2026-05-06 16:31 27.88251 -15.40852 893 ft 134 kts 21°
2026-05-06 16:31 27.89099 -15.40459 738 ft 134 kts 25°
2026-05-06 16:31 27.89971 -15.40073 562 ft 135 kts 20°
2026-05-06 16:32 27.90844 -15.39695 366 ft 132 kts 22°
2026-05-06 16:32 27.91695 -15.39314 163 ft 131 kts 21°
2026-05-06 16:32 27.92514 -15.38956 74 ft 116 kts 21°
2026-05-06 16:32 27.93073 -15.38713 65 ft 53 kts 21°
2026-05-06 16:33 27.93309 -15.38608 62 ft 35 kts 22°
2026-05-06 16:33 27.93543 -15.38509 60 ft 36 kts 19°
2026-05-06 16:33 27.93782 -15.38426 55 ft 36 kts
2026-05-06 16:34 27.94065 -15.38547 51 ft 18 kts 288°
2026-05-06 16:34 27.94022 -15.38656 50 ft 16 kts 199°
2026-05-06 16:34 27.93910 -15.38694 53 ft 17 kts 199°
2026-05-06 16:34 27.93795 -15.38741 55 ft 18 kts 200°
2026-05-06 16:35 27.93676 -15.38798 52 ft 19 kts 203°
2026-05-06 16:35 27.93594 -15.38836 57 ft 12 kts 201°
2026-05-06 16:35 27.93557 -15.38879 59 ft 5 kts 272°
2026-05-06 16:35 27.93570 -15.38916 55 ft 6 kts 292°
2026-05-06 16:36 27.93577 -15.38934 58 ft 0 kts 292°